COSMOS 2251 DEB, 36559

Orbit data source: Space-Track

COSMOS 2251 DEB, 36559 is space debris in LEO originally from a launch on Wed, 16 Jun 1993 UTC launched from the Plesetsk Missile And Space Complex (PKMTR). The debris from Iridium 33, an American commercial communications satellite, has been tracked extensively since its accidental collision with the defunct Russian satellite Cosmos 2251 in 2009. This event, occurring at high speed in low Earth orbit (LEO), generated thousands of pieces of space debris, significantly increasing the risk of further collisions. The Iridium 33 debris cloud has impacted space traffic management and orbital debris mitigation strategies, making it a subject of ongoing study in space situational awareness.

Loading next visibility...
Identifier
36559, 1993-036BDV
Orbit
LEO
Country
Flag of CISCIS
Related business
Manufacturer
Unknown
Mission
Spacecraft
Bus & Motor
Unknown
Mass
Unknown
Launch date (UTC)
1993-06-16 (33 years ago)
Launch vehicle
Unknown
Launch site
Plesetsk Missile And Space Complex (PKMTR)
Object type
Payload
Rocket body
Debris
Shape & HBR
Unknown shape, 1.1 m
Radar Cross Section
Medium (>0.1 m² and <1 m²)

Expand to show TLE details & history
Last TLE update: 12 hours ago

TLE from 12 hours ago
0 COSMOS 2251 DEB
1 36559U 93036BDV 26208.33652377  .00002682  00000-0  14240-2 0  9994
2 36559  74.1254 341.4026 0260883 321.2325  37.0335 13.98081006842582
Epoch: 2026-07-27T08:04Z
TLE epoch observation values (Epoch: 2026-07-27T08:04:35.653Z)
Latitude
-0.00006°
Longitude
-84.76753°
Altitude
753.27 km
Speed
7.555 km/s
True Right ascension
22h 45m 36s
True Declination
0° 00' 00"
Sunlit
Object was in full shadow at epoch
Visualization orbit readout
Latitude
Unknown
Longitude
Unknown
Altitude
Unknown
Speed
Unknown
Apparent Right ascension
Unknown
Apparent Declination
Unknown
Sunlit
N/A
Visualization observer readout
Local Sidereal Time
09:34:31
Azimuth
Unknown
Elevation
Unknown
Doppler factor
Unknown
Orbital elements
Apogee altitude
1,087.929 km
Perigee altitude
708.279 km
Semi-major axis
7,276.241 km
Eccentricity
0.02609
Inclination
74.1254°
RAAN
341.4026°
Arg. of periapsis
321.2325°
True anomaly
38.88177°
Mean anomaly
37.0335°
Eccentric anomaly
37.95279°
Mean motion
3.49689 °/min
Orbital period
102.95 mins
BSTAR
0.001424
Loading maneuver chart data...
Computing Atmospheric mass density...

Documentation

Showing up to 5 results
|